TimePDT,TemperatureF,Dew PointF,Humidity,Sea Level PressureIn,VisibilityMPH,Wind Direction,Wind SpeedMPH,Gust SpeedMPH,PrecipitationIn,Events,Conditions,WindDirDegrees,DateUTC
12:35 AM,50.0,48.2,94,30.15,10.0,South,10.4,-,N/A,,Light Drizzle,170,2013-03-13 07:35:00
12:52 AM,50.0,48.2,94,30.15,10.0,South,11.5,-,N/A,,Overcast,170,2013-03-13 07:52:00
12:54 AM,50.0,48.2,94,30.15,10.0,SSE,11.5,-,N/A,,Light Drizzle,160,2013-03-13 07:54:00
12:58 AM,50.2,48.0,92,30.17,10.0,South,10.4,-,0.01,,Light Drizzle,170,2013-03-13 07:58:00
1:09 AM,50.0,48.2,94,30.16,10.0,South,10.4,-,N/A,,Overcast,170,2013-03-13 08:09:00
1:58 AM,49.8,48.2,94,30.19,10.0,SSE,9.2,-,0.00,,Overcast,160,2013-03-13 08:58:00
2:58 AM,49.3,48.6,97,30.19,10.0,SSE,9.2,-,N/A,,Overcast,150,2013-03-13 09:58:00
3:58 AM,49.5,48.0,95,30.19,10.0,SSE,6.9,-,N/A,,Overcast,150,2013-03-13 10:58:00
4:33 AM,50.0,48.2,94,30.19,4.0,ESE,3.5,-,N/A,,Light Drizzle,120,2013-03-13 11:33:00
4:38 AM,48.2,48.2,100,30.19,4.0,ESE,3.5,-,N/A,,Light Drizzle,110,2013-03-13 11:38:00
4:43 AM,48.2,48.2,100,30.19,5.0,ESE,3.5,-,N/A,,Light Drizzle,110,2013-03-13 11:43:00
4:44 AM,48.2,48.2,100,30.18,5.0,East,3.5,-,N/A,,Overcast,100,2013-03-13 11:44:00
4:46 AM,48.2,48.2,100,30.19,6.0,East,2.3,-,N/A,,Overcast,90,2013-03-13 11:46:00
4:51 AM,48.2,48.2,100,30.19,8.0,East,2.3,-,N/A,,Overcast,100,2013-03-13 11:51:00
4:58 AM,48.9,48.7,99,30.21,9.0,East,3.5,-,0.02,,Mostly Cloudy,90,2013-03-13 11:58:00
5:53 AM,48.2,48.2,100,30.19,10.0,ESE,4.6,-,N/A,,Overcast,120,2013-03-13 12:53:00
5:58 AM,48.7,48.6,99,30.21,9.0,ESE,4.6,-,N/A,,Overcast,120,2013-03-13 12:58:00
6:13 AM,48.2,48.2,100,30.19,7.0,ESE,4.6,-,N/A,,Overcast,110,2013-03-13 13:13:00
6:56 AM,48.2,48.2,100,30.18,4.0,ESE,4.6,-,N/A,,Overcast,120,2013-03-13 13:56:00
7:01 AM,48.2,48.2,100,30.18,4.0,ESE,5.8,-,N/A,,Overcast,120,2013-03-13 14:01:00
7:55 AM,48.2,48.2,100,30.18,5.0,ESE,3.5,-,N/A,,Overcast,120,2013-03-13 14:55:00
7:56 AM,48.2,48.2,100,30.18,5.0,ESE,2.3,-,N/A,,Overcast,120,2013-03-13 14:56:00
8:56 AM,50.0,50.0,100,30.18,10.0,South,2.3,-,N/A,,Overcast,170,2013-03-13 15:56:00
9:45 AM,50.0,48.2,94,30.19,10.0,SSW,6.9,-,N/A,,Light Drizzle,210,2013-03-13 16:45:00
9:56 AM,50.0,48.2,94,30.19,10.0,South,2.3,-,N/A,,Overcast,190,2013-03-13 16:56:00
10:37 AM,51.8,48.2,88,30.19,10.0,SW,5.8,-,N/A,,Light Drizzle,230,2013-03-13 17:37:00
10:47 AM,51.8,50.0,94,30.19,10.0,SW,5.8,-,N/A,,Overcast,220,2013-03-13 17:47:00
10:56 AM,51.8,50.0,94,30.20,10.0,WSW,6.9,-,N/A,,Overcast,240,2013-03-13 17:56:00
11:03 AM,51.8,50.0,94,30.20,5.0,WSW,8.1,-,N/A,,Light Drizzle,240,2013-03-13 18:03:00
11:56 AM,51.8,50.0,94,30.21,8.0,South,5.8,-,N/A,,Light Drizzle,190,2013-03-13 18:56:00
12:56 PM,51.8,50.0,94,30.20,10.0,SSE,10.4,-,N/A,,Light Drizzle,160,2013-03-13 19:56:00
1:57 PM,51.8,51.8,100,30.19,10.0,SSE,5.8,-,N/A,,Overcast,150,2013-03-13 20:57:00
1:58 PM,52.5,51.1,95,30.21,10.0,SSE,4.6,-,0.04,,Overcast,160,2013-03-13 20:58:00
2:08 PM,51.8,51.8,100,30.19,9.0,SSE,5.8,-,N/A,,Overcast,150,2013-03-13 21:08:00
2:13 PM,53.6,51.8,94,30.19,10.0,Variable,4.6,-,N/A,,Overcast,0,2013-03-13 21:13:00
2:58 PM,53.2,51.3,93,30.19,10.0,SE,4.6,-,0.01,,Overcast,140,2013-03-13 21:58:00
3:08 PM,53.6,51.8,94,30.17,10.0,SSE,5.8,-,N/A,,Overcast,160,2013-03-13 22:08:00
3:18 PM,53.6,51.8,94,30.17,10.0,SSE,5.8,-,N/A,,Overcast,160,2013-03-13 22:18:00
3:43 PM,53.6,50.0,88,30.16,10.0,South,3.5,-,N/A,,Overcast,170,2013-03-13 22:43:00
3:58 PM,53.6,51.3,92,30.18,10.0,South,3.5,-,0.01,,Overcast,190,2013-03-13 22:58:00
4:18 PM,53.6,51.8,94,30.16,8.0,SW,6.9,-,N/A,,Overcast,220,2013-03-13 23:18:00
4:23 PM,53.6,50.0,88,30.16,9.0,SSW,5.8,-,N/A,,Overcast,210,2013-03-13 23:23:00
4:58 PM,53.4,51.4,93,30.17,10.0,SE,5.8,-,N/A,,Mostly Cloudy,140,2013-03-13 23:58:00
5:10 PM,53.6,51.8,94,30.14,10.0,SE,5.8,-,N/A,,Light Drizzle,140,2013-03-14 00:10:00
5:21 PM,53.6,51.8,94,30.14,10.0,SE,5.8,-,N/A,,Mostly Cloudy,140,2013-03-14 00:21:00
5:58 PM,53.1,51.8,95,30.14,10.0,SSE,3.5,-,0.01,,Mostly Cloudy,150,2013-03-14 00:58:00
6:58 PM,52.9,51.3,94,30.12,10.0,West,3.5,-,N/A,,Overcast,260,2013-03-14 01:58:00
7:26 PM,51.8,51.8,100,30.12,10.0,West,5.8,-,N/A,,Overcast,270,2013-03-14 02:26:00
7:36 PM,51.8,51.8,100,30.12,10.0,West,4.6,-,N/A,,Overcast,280,2013-03-14 02:36:00
7:51 PM,51.8,51.8,100,30.12,10.0,WNW,3.5,-,N/A,,Overcast,290,2013-03-14 02:51:00
7:58 PM,51.8,51.6,99,30.12,10.0,WNW,4.6,-,N/A,,Overcast,290,2013-03-14 02:58:00
8:20 PM,51.8,51.8,100,30.12,10.0,West,5.8,-,N/A,,Overcast,270,2013-03-14 03:20:00
8:30 PM,51.8,51.8,100,30.13,9.0,West,5.8,-,N/A,,Overcast,270,2013-03-14 03:30:00
8:35 PM,51.8,50.0,94,30.12,9.0,West,5.8,-,N/A,,Overcast,280,2013-03-14 03:35:00
8:58 PM,50.0,49.8,99,30.12,10.0,West,8.1,-,N/A,,Overcast,260,2013-03-14 03:58:00
9:03 PM,50.0,50.0,100,30.12,10.0,West,5.8,-,N/A,,Overcast,280,2013-03-14 04:03:00
9:08 PM,50.0,50.0,100,30.12,10.0,West,4.6,-,N/A,,Overcast,260,2013-03-14 04:08:00
9:18 PM,50.0,50.0,100,30.12,10.0,West,3.5,-,N/A,,Overcast,270,2013-03-14 04:18:00
9:33 PM,50.0,50.0,100,30.12,10.0,WSW,4.6,-,N/A,,Overcast,250,2013-03-14 04:33:00
9:48 PM,50.0,48.2,94,30.11,10.0,SW,1.2,-,N/A,,Overcast,230,2013-03-14 04:48:00
9:58 PM,49.3,48.9,99,30.11,10.0,Calm,Calm,-,N/A,,Overcast,0,2013-03-14 04:58:00
10:03 PM,50.0,48.2,94,30.11,10.0,Calm,Calm,-,N/A,,Overcast,0,2013-03-14 05:03:00
10:43 PM,50.0,48.2,94,30.11,10.0,Calm,Calm,-,N/A,,Overcast,0,2013-03-14 05:43:00
10:58 PM,49.5,49.1,99,30.11,10.0,Calm,Calm,-,N/A,,Overcast,0,2013-03-14 05:58:00
11:58 PM,49.6,49.5,99,30.09,10.0,Calm,Calm,-,N/A,,Overcast,0,2013-03-14 06:58:00